www.pogodaiklimat.ru

Погода и климат >> Архив погоды >> Ирландия >> Belmullet


ПОГОДА в Belmullet

  • Прогноз погоды в Belmullet
  • Монитор погоды в Belmullet
  • Климат города

АРХИВ ПОГОДЫ в Belmullet

Время (UTC), дата Ветер
(напр.,м/с)
 
Видим.   Явления Облачность Т
(С)
Тd
(С)
f
(%)
Тe
(С)
Тes
(С)
Комфортность P
(гПа)
Po
(гПа)
Тmin
(С)
Tmax
(С)
R
(мм)
R24
(мм)
S
(см)
01 8.08 З 4 25 км н/о +12.8 +9.9 83 +11 +11 1005.9 1004.8
02 8.08 СЗ 4 26 км в посл. час морось н/о +12.1 +10.4 89 +10 +10 1006.0 1004.8
03 8.08 СЗ 3 17 км в посл. час морось {ливн. осадки} н/о +11.3 +10.1 92 +9 +9 1006.3 1005.1
04 8.08 СЗ 4 22 км н/о +12.0 +9.6 85 +10 +10 1006.4 1005.2
05 8.08 З 4 17 км н/о +11.6 +8.1 79 +9 +9 1006.6 1005.4
06 8.08 З 4 18 км {ливн. осадки, морось} н/о +12.2 +8.4 78 +10 +10 1007.1 1005.9 +10.8 1
07 8.08 З 5 22 км н/о +13.2 +7.6 69 +11 +11 1007.4 1006.2
08 8.08 З 6 19 км в посл. час дождь {ливн. осадки} н/о +12.6 +9.3 80 +10 +10 1007.8 1006.7
09 8.08 З 6 24 км {ливн. осадки} н/о +13.9 +8.1 68 +12 +12 1008.1 1007.0
10 8.08 З 5 15 км н/о +14.0 +9.9 76 +12 +12 1008.6 1007.4
11 8.08 З 6 27 км н/о +14.5 +8.1 65 +13 +13 1009.0 1007.9
12 8.08 З 6 22 км {ливн. осадки} н/о +14.9 +7.9 63 +13 +13 1009.4 1008.3 0.7
13 8.08 З 7 26 км н/о +15.4 +8.5 63 +14 +14 1009.9 1008.7
14 8.08 З 6 30 км н/о +15.4 +8.5 63 +14 +14 1010.2 1009.0
15 8.08 З 6 19 км н/о +15.2 +8.4 64 +14 +14 1010.3 1009.1
16 8.08 З 5 19 км н/о +15.0 +8.4 65 +14 +14 1010.4 1009.3
17 8.08 З 8 23 км н/о +14.8 +7.2 60 +13 +13 1010.6 1009.4
18 8.08 З 7 26 км н/о +13.4 +7.7 68 +11 +11 1010.6 1009.5 +15.6 0.8
19 8.08 ЮЗ 6 19 км слаб. ливневой дождь н/о +12.5 +8.5 77 +10 +10 1010.9 1009.7
20 8.08 ЮЗ 8 19 км слаб. ливневой дождь н/о +12.2 +8.9 80 +9 +9 1010.7 1009.5
21 8.08 З 9 8000 м слаб. ливневой дождь н/о +11.7 +9.0 83 +8 +8 1011.1 1009.9
22 8.08 ЮЗ 5 19 км слаб. ливневой дождь н/о +11.6 +8.9 83 +9 +9 1010.6 1009.4
23 8.08 З 7 21 км {ливн. осадки} н/о +12.2 +8.0 75 +9 +9 1010.6 1009.4
00 9.08 ЮЗ 4 29 км в посл. час дождь {ливн. осадки} н/о +10.7 +8.3 85 +8 +8 1010.5 1009.3 2
01 9.08 З 4 25 км н/о +12.1 +8.5 79 +10 +10 1010.4 1009.2
02 9.08 З 5 28 км н/о +12.4 +8.2 76 +10 +10 1010.3 1009.1
03 9.08 З 4 25 км в посл. час дождь {ливн. осадки} н/о +12.1 +8.5 79 +10 +10 1010.4 1009.2
04 9.08 З 3 24 км н/о +11.4 +8.7 83 +10 +10 1010.5 1009.4
05 9.08 З 3 22 км в посл. час дождь {ливн. осадки} н/о +10.8 +8.3 85 +9 +9 1010.6 1009.5
06 9.08 З 5 29 км {ливн. осадки} н/о +12.5 +8.3 76 +10 +10 1011.0 1009.8 +10.5 2
07 9.08 З 5 24 км н/о +12.9 +8.0 72 +11 +11 1011.1 1009.9
08 9.08 З 5 28 км н/о +13.3 +7.6 68 +11 +11 1011.4 1010.2
09 9.08 ЮЗ 6 12 км слаб. ливневой дождь н/о +13.5 +9.5 77 +11 +11 1011.7 1010.6
10 9.08 ЮЗ 7 30 км н/о +13.8 +7.4 65 +12 +12 1011.9 1010.7
11 9.08 ЮЗ 7 24 км н/о +15.3 +9.1 66 +14 +14 1012.0 1010.8
12 9.08 З 5 14 км слаб. ливневой дождь н/о +13.8 +10.0 78 +12 +12 1012.2 1011.1 0.0
13 9.08 З 6 21 км н/о +15.3 +9.8 70 +14 +14 1012.6 1011.4
14 9.08 З 6 30 км н/о +15.0 +9.8 71 +13 +13 1012.8 1011.7
15 9.08 З 6 30 км н/о +15.2 +9.1 67 +14 +14 1013.1 1011.9
16 9.08 З 6 21 км н/о +14.9 +9.0 68 +13 +13 1013.2 1012.0
17 9.08 З 5 28 км н/о +15.1 +9.0 67 +14 +14 1013.3 1012.1
18 9.08 З 3 22 км слаб. ливневой дождь н/о +13.7 +8.2 69 +13 +13 1013.6 1012.4 +15.8 0.0
19 9.08 СЗ 3 30 км н/о +13.0 +8.0 72 +12 +12 1013.9 1012.7
20 9.08 З 3 27 км слаб. ливневой дождь н/о +13.1 +7.3 68 +12 +12 1013.8 1012.7
21 9.08 З 5 28 км слаб. ливневой дождь н/о +12.3 +8.6 78 +10 +10 1014.1 1012.9
22 9.08 З 2 24 км в посл. час дождь {ливн. осадки} н/о +11.3 +9.4 88 +10 +10 1014.2 1013.0
23 9.08 З 2 35 км н/о +11.1 +8.1 82 +10 +10 1014.1 1012.9
00 10.08 З 3 35 км {ливн. осадки} н/о +11.0 +7.6 80 +9 +9 1014.4 1013.2 0.5
01 10.08 СЗ 4 30 км слаб. ливневой дождь н/о +11.6 +7.0 73 +10 +10 1014.5 1013.3
02 10.08 СЗ 4 30 км слаб. ливневой дождь н/о +11.5 +7.1 74 +9 +9 1014.6 1013.4
03 10.08 З 2 30 км в посл. час дождь {ливн. осадки} н/о +10.8 +8.2 84 +9 +9 1014.3 1013.1
04 10.08 СЗ 3 30 км н/о +11.0 +8.3 83 +9 +9 1014.5 1013.3
05 10.08 СЗ 3 30 км в посл. час дождь {ливн. осадки} н/о +10.6 +8.5 87 +9 +9 1014.9 1013.7
06 10.08 СЗ 4 30 км {ливн. осадки} н/о +10.9 +7.5 80 +9 +9 1015.3 1014.1 +10.6 0.6
07 10.08 СЗ 4 35 км н/о +12.4 +8.1 75 +11 +11 1015.8 1014.6
08 10.08 СЗ 5 40 км н/о +13.1 +8.3 73 +11 +11 1016.3 1015.2
09 10.08 З 4 25 км н/о +14.6 +9.1 70 +13 +13 1016.9 1015.7
10 10.08 СЗ 5 25 км н/о +15.1 +8.6 65 +14 +14 1017.4 1016.2
11 10.08 СЗ 5 28 км н/о +14.7 +9.3 70 +13 +13 1017.9 1016.7
12 10.08 З 5 35 км н/о +14.9 +8.6 66 +14 +14 1018.4 1017.2
13 10.08 СЗ 5 35 км н/о +15.7 +8.6 63 +15 +15 1018.7 1017.6
14 10.08 З 5 28 км н/о +15.8 +7.8 59 +15 +15 1019.1 1018.0
15 10.08 СЗ 4 26 км н/о +16.3 +7.7 57 +16 +16 1019.4 1018.2
16 10.08 З 3 28 км н/о +15.9 +8.0 59 +16 +16 1019.5 1018.3
17 10.08 З 3 29 км н/о +15.5 +7.9 61 +15 +15 1019.7 1018.5
18 10.08 З 3 29 км н/о +15.0 +7.7 62 +14 +14 1019.9 1018.7 +16.6
19 10.08 З 1 30 км н/о +14.8 +7.3 61 +15 +15 1019.8 1018.7
20 10.08 ЮЗ 1 24 км н/о +12.9 +7.9 72 +13 +13 1020.1 1018.9
21 10.08 ЮЗ 1 35 км н/о +10.2 +6.8 79 +10 +10 1020.5 1019.3
22 10.08 штиль 0 30 км н/о +9.1 +6.5 84 +8 +8 1020.2 1019.0
23 10.08 СВ 1 27 км н/о +8.2 +6.2 87 +7 +7 1020.1 1018.9
00 11.08 СВ 1 30 км н/о +7.3 +5.8 90 +6 +6 1019.9 1018.7
01 11.08 В 2 35 км н/о +8.1 +6.9 92 +6 +6 1019.1 1017.9
02 11.08 В 1 30 км н/о +8.3 +6.8 90 +7 +7 1018.5 1017.3
03 11.08 В 2 40 км н/о +9.0 +7.4 90 +7 +7 1017.7 1016.5
04 11.08 ЮВ 2 35 км н/о +9.5 +7.4 87 +8 +8 1017.0 1015.8
05 11.08 В 2 35 км н/о +8.9 +7.2 89 +7 +7 1016.3 1015.1
06 11.08 В 2 40 км н/о +9.9 +8.2 89 +8 +8 1015.6 1014.4 +7.2
07 11.08 В 3 26 км н/о +11.6 +8.6 82 +10 +10 1014.6 1013.4
08 11.08 В 3 35 км н/о +13.3 +9.7 79 +12 +12 1013.8 1012.6
09 11.08 ЮВ 5 45 км н/о +15.5 +10.0 70 +14 +14 1012.9 1011.7
10 11.08 ЮВ 8 35 км н/о +17.1 +13.3 78 +16 +16 1011.6 1010.5
11 11.08 ЮВ 8 35 км н/о +17.9 +13.9 77 +17 +17 1011.0 1009.8
12 11.08 ЮВ 5 35 км н/о +18.2 +14.3 78 +18 +18 1010.0 1008.8
13 11.08 ЮВ 8 30 км н/о +19.9 +15.5 76 +22 +22 комфорт 1008.8 1007.7
14 11.08 ЮВ 7 35 км н/о +19.6 +15.8 79 +21 +21 комфорт 1008.1 1007.0
15 11.08 ЮВ 7 25 км слаб. ливневой дождь н/о +19.1 +16.9 87 +20 +20 1007.2 1006.0
16 11.08 ЮВ 6 2800 м ливневой дождь н/о +18.5 +17.2 92 +19 +19 1006.3 1005.2
17 11.08 Ю 8 6000 м слаб. ливневой дождь н/о +17.9 +17.4 97 +17 +17 1006.0 1004.8
18 11.08 Ю 7 4000 м ливневой дождь н/о +17.4 +17.0 97 +16 +16 1005.6 1004.5 +20.4 4
19 11.08 Ю 8 24 км в посл. час дождь {ливн. осадки} н/о +17.0 +16.3 96 +16 +16 1005.4 1004.2
20 11.08 Ю 6 8000 м дымка н/о +16.4 +16.1 98 +15 +15 1005.5 1004.3
21 11.08 ЮЗ 5 3800 м в посл. час морось {ливн. осадки} н/о +15.2 +14.9 98 +14 +14 1006.0 1004.8
22 11.08 ЮЗ 5 12 км н/о +14.9 +14.4 97 +13 +13 1006.1 1004.9
23 11.08 ЮЗ 5 20 км в посл. час морось н/о +14.1 +13.5 96 +12 +12 1006.0 1004.8
00 12.08 ЮЗ 4 11 км {ливн. осадки, морось} н/о +14.1 +12.9 92 +13 +13 1006.1 1004.9 0.7
01 12.08 ЮЗ 4 16 км н/о +14.1 +12.2 88 +13 +13 1005.9 1004.7
02 12.08 ЮЗ 2 16 км н/о +13.2 +11.9 92 +12 +12 1005.6 1004.5
03 12.08 штиль 0 13 км н/о +11.4 +10.4 94 +11 +11 1005.3 1004.1
04 12.08 ЮВ 1 16 км н/о +10.5 +9.8 95 +10 +10 1004.9 1003.7
05 12.08 ЮВ 1 19 км н/о +11.5 +11.1 97 +11 +11 1005.1 1003.9
06 12.08 ЮВ 1 16 км н/о +12.8 +12.2 96 +13 +13 1005.3 1004.1 +10.1 0.7
07 12.08 ЮВ 2 23 км н/о +14.1 +13.3 95 +14 +14 1005.5 1004.3
08 12.08 ЮВ 2 23 км н/о +15.7 +13.1 85 +16 +16 1005.7 1004.5
09 12.08 Ю 4 29 км н/о +16.5 +13.8 84 +16 +16 1005.8 1004.7
10 12.08 Ю 2 28 км н/о +17.7 +13.8 78 +18 +18 1005.9 1004.8
11 12.08 Ю 3 26 км н/о +20.0 +15.0 73 +23 +23 комфорт 1006.0 1004.8
12 12.08 С 3 29 км н/о +18.9 +14.0 73 +20 +20 1006.1 1005.0
13 12.08 С 3 23 км н/о +18.3 +13.6 74 +19 +19 1006.2 1005.1
14 12.08 СЗ 2 22 км н/о +18.5 +12.8 69 +20 +20 1006.4 1005.2
15 12.08 СВ 3 35 км н/о +17.7 +12.6 72 +18 +18 1006.4 1005.3
16 12.08 С 2 35 км н/о +18.2 +12.4 69 +19 +19 1006.3 1005.2
17 12.08 СВ 3 30 км н/о +18.7 +12.3 66 +20 +20 1006.4 1005.3
18 12.08 С 3 40 км н/о +18.1 +12.3 69 +18 +18 1006.8 1005.6 +20.3
19 12.08 С 3 45 км н/о +17.2 +12.0 71 +17 +17 1006.8 1005.6
20 12.08 С 2 40 км н/о +15.1 +12.4 84 +15 +15 1007.4 1006.3
21 12.08 С 2 35 км н/о +14.7 +12.6 87 +14 +14 1007.6 1006.4
22 12.08 С 2 35 км н/о +13.2 +11.3 88 +12 +12 1007.7 1006.5
23 12.08 С 2 35 км н/о +13.0 +11.6 91 +12 +12 1008.1 1006.9
00 13.08 СЗ 1 30 км н/о +13.1 +11.6 91 +13 +13 1008.2 1007.0
01 13.08 З 1 16 км н/о +13.5 +12.4 93 +14 +14 1008.3 1007.1
02 13.08 СЗ 1 17 км н/о +13.9 +12.8 93 +14 +14 1008.3 1007.1
03 13.08 С 2 25 км в посл. час морось {ливн. осадки} н/о +13.4 +12.5 94 +13 +13 1008.4 1007.3
04 13.08 З 1 12 км н/о +13.3 +12.4 94 +13 +13 1008.4 1007.2
05 13.08 З 1 18 км н/о +13.4 +12.6 95 +13 +13 1008.4 1007.2
06 13.08 З 2 28 км {ливн. осадки} н/о +13.6 +12.6 94 +13 +13 1009.1 1008.0 +12.6 0.3
07 13.08 З 2 30 км н/о +14.2 +12.7 91 +14 +14 1009.4 1008.3
08 13.08 З 3 35 км н/о +14.8 +12.7 87 +14 +14 1009.8 1008.7
09 13.08 З 3 35 км н/о +15.2 +12.8 86 +14 +14 1010.1 1008.9
10 13.08 З 5 35 км н/о +15.6 +13.5 87 +14 +14 1010.1 1009.0
11 13.08 З 4 4500 м дымка н/о +15.4 +13.9 91 +14 +14 1010.7 1009.6
12 13.08 З 5 35 км н/о +15.7 +13.2 85 +14 +14 1011.1 1009.9
13 13.08 З 5 30 км н/о +16.1 +13.3 83 +15 +15 1011.2 1010.1
14 13.08 З 5 22 км н/о +15.9 +12.8 82 +15 +15 1011.6 1010.4
15 13.08 З 4 10 км н/о +15.6 +12.8 83 +15 +15 1011.6 1010.5
16 13.08 ЮЗ 5 15 км н/о +15.3 +13.0 86 +14 +14 1011.4 1010.3
17 13.08 ЮЗ 5 13 км н/о +15.5 +14.1 91 +14 +14 1011.4 1010.2
18 13.08 ЮЗ 5 9000 м дымка н/о +15.5 +14.6 94 +14 +14 1011.4 1010.2 +16.7
19 13.08 ЮЗ 5 6000 м дымка н/о +15.5 +14.9 96 +14 +14 1011.6 1010.4
20 13.08 З 5 17 км н/о +15.5 +14.7 95 +14 +14 1011.7 1010.5
21 13.08 З 3 24 км н/о +15.2 +13.9 92 +14 +14 1012.1 1010.9
22 13.08 З 4 17 км н/о +15.0 +13.8 93 +14 +14 1012.2 1011.1
23 13.08 ЮЗ 4 15 км н/о +15.2 +14.1 93 +14 +14 1012.5 1011.3
00 14.08 ЮЗ 5 18 км н/о +15.1 +14.1 94 +14 +14 1012.5 1011.4
01 14.08 ЮЗ 6 12 км в посл. час морось {ливн. осадки} н/о +15.2 +14.6 96 +14 +14 1012.5 1011.3
02 14.08 ЮЗ 6 2600 м дымка н/о +15.3 +14.9 97 +14 +14 1011.8 1010.7
03 14.08 ЮЗ 6 4300 м дымка {ливн. осадки} н/о +15.4 +15.1 98 +14 +14 1011.7 1010.5
04 14.08 ЮЗ 7 8000 м дымка н/о +15.4 +14.8 96 +14 +14 1011.6 1010.4
05 14.08 ЮЗ 6 8000 м дымка н/о +15.6 +14.9 96 +14 +14 1011.5 1010.3
06 14.08 ЮЗ 7 4800 м дымка {ливн. осадки} н/о +15.5 +15.1 97 +14 +14 1011.8 1010.6 +14.7 0.1
07 14.08 ЮЗ 7 3600 м ливневой дождь н/о +15.5 +15.2 98 +14 +14 1011.9 1010.7
08 14.08 ЮЗ 9 10 км в посл. час дождь н/о +15.7 +15.1 96 +14 +14 1012.2 1011.0
09 14.08 ЮЗ 8 10 км в посл. час морось {ливн. осадки, дождь} н/о +15.7 +15.3 97 +14 +14 1012.1 1010.9
10 14.08 ЮЗ 9 5000 м слаб. ливневой дождь н/о +15.7 +15.4 98 +14 +14 1012.4 1011.2
11 14.08 ЮЗ 9 3400 м дымка н/о +16.1 +15.7 97 +14 +14 1012.4 1011.3
12 14.08 ЮЗ 9 3600 м дымка {ливн. осадки, дождь} н/о +16.3 +15.8 97 +14 +14 1012.5 1011.3 3
13 14.08 ЮЗ 8 2200 м слаб. ливневой дождь н/о +16.2 +15.8 97 +15 +15 1012.8 1011.7
14 14.08 ЮЗ 9 12 км н/о +16.5 +15.6 94 +15 +15 1013.0 1011.9
15 14.08 ЮЗ 8 10 км {ливн. осадки} н/о +16.3 +15.7 96 +15 +15 1012.8 1011.6
16 14.08 ЮЗ 7 3000 м морось н/о +16.1 +15.7 97 +15 +15 1012.5 1011.3
17 14.08 ЮЗ 7 7000 м в посл. час дождь {ливн. осадки} н/о +16.0 +15.7 98 +14 +14 1012.0 1010.8
18 14.08 ЮЗ 8 10 км в посл. час морось {ливн. осадки} н/о +16.0 +15.6 97 +14 +14 1011.8 1010.6 +16.6 4
19 14.08 ЮЗ 7 5000 м дымка н/о +16.1 +15.7 97 +15 +15 1011.4 1010.2
20 14.08 ЮЗ 9 3500 м слаб. ливневой дождь н/о +16.1 +15.7 97 +14 +14 1011.1 1010.0
21 14.08 ЮЗ 9 2400 м слаб. ливневой дождь {дымка} н/о +16.0 +15.6 97 +14 +14 1010.8 1009.6
22 14.08 ЮЗ 8 2200 м слаб. ливневой дождь н/о +15.9 +15.7 99 +14 +14 1010.4 1009.3
23 14.08 ЮЗ 8 6000 м в посл. час дождь н/о +15.9 +15.5 97 +14 +14 1010.2 1009.1
00 15.08 ЮЗ 8 4700 м слаб. дождь {ливн. осадки} н/о +15.8 +15.4 97 +14 +14 1010.0 1008.8 0.5

 

Местоположение метеостанции Belmullet (Ирландия): широта 54.23 долгота -10.00 высота над уровнем моря 9 м.

В архиве по умолчанию представлена погода в Belmullet за последнюю неделю. Архивные данные за месяц целиком и за предыдущие месяцы, начиная с января 2011 года, Вы можете получить, выбрав интересующий диапазон дат из раскрывающегося списка и нажав кнопку "Ввод!".


*Определитесь, кто Вы:
робот инопланетянин человек

Внимание! Время в таблицах - всемирное. Для получения местного времени необходимо прибавить поправку, которая в Belmullet равна 0 ч.

Смотрите также архив погоды в соседних городах и на ближайших метеорологических станциях:

Погода в Knock Airport (Ирландия) (85 км)
Погода в Claremorris (Ирландия) (88 км)
Погода в Mace Head (Ирландия) (101 км)
Погода в Finner (Ирландия) (118 км)
Погода в Thomastown (Великобритания) (157 км)
Погода в Castlederg (Великобритания) (165 км)
Погода в Ballyhaise, Cavan (Ирландия) (176 км)
Погода в Shannon Airport (Ирландия) (186 км)
Погода в Gurteen (Ирландия) (187 км)
Погода в Mullingar (Ирландия) (189 км)

Пояснения к столбцам:

Ветер - указаны скорость ветра в м/с - средняя за 10 мин, порывы в срок и между сроками (в фигурных скобках) и направление, откуда дует ветер: С - северный, СВ - северо-восточный, В - восточный, ЮВ - юго-восточный, Ю - южный, ЮЗ - юго-западный, З - западный, СЗ - северо-западный.
Видимость - горизонтальная дальность видимости в метрах или километрах. При видимости от 1 до 10 км при отсутствии осадков обычно наблюдается дымка, при ухудшении видимости до 1 км и менее - туман. В сухую погоду видимость может ухудшаться дымом, пылью или мглою.
Явления - указаны атмосферные явления, наблюдавшиеся в срок или в последний час перед сроком; фигурными скобками обозначены явления, наблюдавшиеся между сроками (за 1-3 часа до срока); квадратными скобками обозначены град или гололедные отложения с указанием их диаметра в мм.
Облачность - указаны через наклонную черту общая и нижняя облачность в баллах и высота нижней границы облаков в метрах; квадратными скобками обозначены формы облаков: Ci - перистые, Cs - перисто-слоистые, Cc - перисто-кучевые, Ac - высококучевые, As - высокослоистые, Sc - слоисто-кучевые, Ns - слоисто-дождевые, Cu - кучевые, Cb - кучево-дождевые. Подробнее классификацию облаков см. в Атласе облаков (PDF).
T - Температура воздуха - температура, измеренная на высоте 2 м над землей.
Td - Температура точки росы - температура, при понижении до которой содержащийся в воздухе водяной пар достигнет насыщения.
f - Относительная влажность воздуха - влажноcть воздуха, измеренная на высоте 2 м над землей.
Te - Эффективная температура - температура, которую ощущает одетый по сезону человек в тени. Характеристика душности погоды. При расчете учитывается влияние влажности воздуха и скорости ветра на теплоощущения человека.
Tes - Эффективная температура на солнце - температура, которую ощущает человек, с поправкой на солнечный нагрев. Характеристика знойности погоды. Зависит от высоты солнца над горизонтом, облачности и скорости ветра. Ночью, в пасмурную погоду, а также при ветре 12 м/с и более поправка равна нулю.
P - Атмосферное давление - приведенное к уровню моря атмосферное давление.
Po - Атмосферное давление - измеренное на уровне метеостанции атмосферное давление.
Tmin - Минимальная температура - минимум температуры воздуха на высоте 2 м над землей.
Tmax - Максимальная температура - максимум температуры воздуха на высоте 2 м над землей.
R - Количество осадков - Количество выпавших осадков за период времени, мм. При наведении курсора мыши на число - период времени, за который выпало указанное количество осадков.
R24 - Количество осадков - Количество выпавших осадков за 24 часа, мм.
S - Снежный покров - Высота снежного покрова, см. При наведении курсора мыши на число - состояние снежного покрова и степень покрытия местности в баллах.